GW4717 Weather Reports


Display with metric or nautical units.
time (UTC)temp
F
wind
direction
speed
MPH
gust
MPH
rain 1hr
in
rain 24hr
in
rain mn
in
humidity
%
barometer
mb
20260503214114 61 348 4.0 6.0 0.00 0.00 0.00 27 1016.4
20260503213609 59 141 2.0 3.0 0.00 0.00 0.00 27 1016.5
20260503213104 61 258 2.0 4.0 0.00 0.00 0.00 28 1016.7
20260503212602 60 304 5.0 7.0 0.00 0.00 0.00 26 1016.7
20260503212059 59 152 2.0 10.0 0.00 0.00 0.00 28 1016.5
20260503211556 59 205 0.0 2.0 0.00 0.00 0.00 26 1016.5
20260503211052 61 294 4.0 4.0 0.00 0.00 0.00 25 1016.6
20260503210549 63 236 0.0 1.0 0.00 0.00 0.00 30 1016.4
20260503210044 60 198 0.0 3.0 0.00 0.00 0.00 32 1016.6
20260503205541 61 155 2.0 3.0 0.00 0.00 0.00 25 1016.8
20260503205038 61 279 1.0 4.0 0.00 0.00 0.00 25 1016.7
20260503204535 62 237 0.0 2.0 0.00 0.00 0.00 29 1016.7
20260503204032 60 127 2.0 3.0 0.00 0.00 0.00 27 1016.7
20260503203529 59 266 0.0 2.0 0.00 0.00 0.00 26 1016.9
20260503203026 60 311 4.0 4.0 0.00 0.00 0.00 27 1016.9
20260503202524 60 279 1.0 6.0 0.00 0.00 0.00 31 1017.0
20260503202022 59 176 0.0 3.0 0.00 0.00 0.00 28 1017.1
20260503201520 62 318 2.0 4.0 0.00 0.00 0.00 26 1017.1
20260503201017 62 152 0.0 1.0 0.00 0.00 0.00 36 1017.0
20260503200513 59 273 1.0 3.0 0.00 0.00 0.00 31 1017.2
20260503200010 58 315 4.0 4.0 0.00 0.00 0.00 27 1017.4
20260503195507 60 156 3.0 3.0 0.00 0.00 0.00 30 1017.2
20260503195003 59 351 0.0 3.0 0.00 0.00 0.00 31 1017.4
20260503194501 59 320 2.0 10.0 0.00 0.00 0.00 29 1017.7
20260503194000 60 151 3.0 6.0 0.00 0.00 0.00 27 1017.7
20260503193457 59 264 1.0 4.0 0.00 0.00 0.00 31 1017.4
20260503192953 59 307 1.0 3.0 0.00 0.00 0.00 31 1017.6
20260503192449 58 116 1.0 6.0 0.00 0.00 0.00 30 1017.8
20260503191944 63 292 1.0 2.0 0.00 0.00 0.00 30 1017.7
20260503191443 61 336 1.0 2.0 0.00 0.00 0.00 42 1017.9
20260503190938 62 307 0.0 1.0 0.00 0.00 0.00 32 1017.9
20260503190436 60 339 1.0 4.0 0.00 0.00 0.00 26 1017.9
20260503185933 58 296 2.0 6.0 0.00 0.00 0.00 29 1018.0
20260503185429 57 312 3.0 8.0 0.00 0.00 0.00 31 1017.8
20260503184928 60 254 1.0 3.0 0.00 0.00 0.00 30 1017.9
20260503184425 62 245 1.0 2.0 0.00 0.00 0.00 35 1018.3
20260503183922 61 311 0.0 3.0 0.00 0.00 0.00 38 1018.4
20260503183418 60 153 1.0 2.0 0.00 0.00 0.00 33 1018.5
20260503182916 58 250 1.0 3.0 0.00 0.00 0.00 31 1018.5
20260503182415 57 313 4.0 10.0 0.00 0.00 0.00 30 1018.7
20260503181911 59 326 3.0 4.0 0.00 0.00 0.00 32 1018.4
20260503181408 60 301 0.0 2.0 0.00 0.00 0.00 35 1018.4
20260503180904 58 313 1.0 3.0 0.00 0.00 0.00 37 1018.6
20260503180403 58 229 0.0 4.0 0.00 0.00 0.00 35 1018.8
20260503175859 56 307 2.0 8.0 0.00 0.00 0.00 32 1018.6
20260503175357 58 303 1.0 2.0 0.00 0.00 0.00 34 1018.8
20260503174857 55 293 8.0 9.0 0.00 0.00 0.00 31 1018.7
20260503174356 54 301 3.0 6.0 0.00 0.00 0.00 35 1018.6
20260503173851 55 305 2.0 3.0 0.00 0.00 0.00 31 1018.8
20260503173348 54 303 1.0 8.0 0.00 0.00 0.00 37 1018.8
20260503172844 55 219 1.0 6.0 0.00 0.00 0.00 31 1018.8
20260503172342 53 39 2.0 3.0 0.00 0.00 0.00 35 1018.9
20260503171838 56 307 10.0 17.0 0.00 0.00 0.00 29 1018.7
20260503171335 58 231 2.0 2.0 0.00 0.00 0.00 38 1018.8
20260503170832 56 137 0.0 2.0 0.00 0.00 0.00 32 1018.9
20260503170329 57 169 3.0 6.0 0.00 0.00 0.00 38 1018.9
20260503150721 49 303 0.0 3.0 0.00 0.00 0.00 44 1019.8
20260503150217 47 232 1.0 8.0 0.00 0.00 0.00 44 1020.0
20260503140141 44 289 0.0 2.0 0.00 0.00 0.00 54 1020.0
20260503131110 41 156 1.0 1.0 0.00 0.00 0.00 55 1019.7
20260503130608 41 246 0.0 7.0 0.00 0.00 0.00 52 1019.5
20260503130106 41 268 0.0 7.0 0.00 0.00 0.00 53 1019.6
20260503110458 34 248 0.0 0.0 0.00 0.00 0.00 68 1018.7
20260503090344 36 162 1.0 3.0 0.00 0.00 0.00 68 1017.1
20260503081311 37 267 1.0 3.0 0.00 0.00 0.00 66 1016.9
20260503080807 36 262 1.0 3.0 0.00 0.00 0.00 67 1017.0
20260503080305 36 136 1.0 2.0 0.00 0.00 0.00 68 1016.9
20260503072741 37 151 0.0 1.0 0.00 0.00 0.00 66 1016.6
20260503072238 37 241 0.0 1.0 0.00 0.00 0.00 67 1016.6
20260503071734 37 312 3.0 6.0 0.00 0.00 0.00 65 1016.5
20260503071231 37 308 3.0 6.0 0.00 0.00 0.00 66 1016.3
20260503070727 37 97 2.0 4.0 0.00 0.00 0.00 65 1016.6
20260503070226 37 308 2.0 8.0 0.00 0.00 0.00 66 1016.5
20260503060145 37 282 1.0 3.0 0.00 0.00 0.00 65 1016.5
20260503054632 38 312 1.0 2.0 0.00 0.00 0.00 65 1016.6
20260503054130 39 303 2.0 6.0 0.00 0.00 0.00 63 1016.5
20260503053627 39 308 0.0 3.0 0.00 0.00 0.00 63 1016.7
20260503053126 39 135 1.0 3.0 0.00 0.00 0.00 64 1016.7
20260503052622 39 159 0.0 1.0 0.00 0.00 0.00 66 1016.6
20260503052118 39 316 1.0 1.0 0.00 0.00 0.00 66 1016.3
20260503051613 39 273 0.0 1.0 0.00 0.00 0.00 65 1016.3
20260503051112 39 65 1.0 2.0 0.00 0.00 0.00 67 1016.5
20260503050608 39 218 1.0 4.0 0.00 0.00 0.00 66 1016.5
20260503050105 39 301 1.0 1.0 0.00 0.00 0.00 68 1016.5
20260503045602 39 311 0.0 0.0 0.00 0.00 0.00 70 1016.7
20260503045059 39 315 1.0 2.0 0.00 0.00 0.00 68 1016.5
20260503044556 38 308 0.0 0.0 0.00 0.00 0.00 72 1016.5
20260503044053 39 308 0.0 0.0 0.00 0.00 0.00 72 1016.6
20260503043549 39 158 0.0 1.0 0.00 0.00 0.00 71 1016.6
20260503043046 38 293 0.0 0.0 0.00 0.00 0.00 71 1016.6
20260503042543 38 293 0.0 0.0 0.00 0.00 0.00 71 1016.6
20260503042039 38 293 0.0 0.0 0.00 0.00 0.00 71 1016.6
20260503041536 39 293 0.0 0.0 0.00 0.00 0.00 70 1016.6
20260503041034 40 293 0.0 0.0 0.00 0.00 0.00 68 1016.5
20260503040531 40 293 0.0 2.0 0.00 0.00 0.00 66 1016.6
20260503040028 40 314 1.0 2.0 0.00 0.00 0.00 65 1016.8
20260503035525 40 305 1.0 6.0 0.00 0.00 0.00 65 1016.6
20260503035023 40 176 1.0 2.0 0.00 0.00 0.00 68 1016.6
20260503034520 40 278 0.0 1.0 0.00 0.00 0.00 65 1016.6
20260503034017 39 236 0.0 0.0 0.00 0.00 0.00 67 1016.6
20260503033514 39 297 0.0 1.0 0.00 0.00 0.00 69 1016.5
20260503033012 39 303 1.0 1.0 0.00 0.00 0.00 68 1016.7
20260503032510 38 304 1.0 1.0 0.00 0.00 0.00 69 1016.5
20260503032008 39 304 1.0 1.0 0.00 0.00 0.00 68 1016.4
20260503031506 39 256 0.0 0.0 0.00 0.00 0.00 65 1016.6
20260503031002 40 149 0.0 0.0 0.00 0.00 0.00 64 1016.6
20260503030458 39 295 0.0 0.0 0.00 0.00 0.00 67 1016.8
20260503025955 40 288 0.0 0.0 0.00 0.00 0.00 65 1016.7
20260503025452 40 295 1.0 1.0 0.00 0.00 0.00 62 1016.6
20260503024950 41 297 0.0 2.0 0.00 0.00 0.00 61 1016.8
20260503024446 41 160 0.0 0.0 0.00 0.00 0.00 60 1016.6
20260503023943 41 294 0.0 1.0 0.00 0.00 0.00 64 1016.8
20260503023440 41 296 0.0 0.0 0.00 0.00 0.00 61 1016.7
20260503022937 41 302 0.0 1.0 0.00 0.00 0.00 61 1016.7
20260503022432 41 291 0.0 0.0 0.00 0.00 0.00 60 1016.5
20260503021928 42 299 0.0 2.0 0.00 0.00 0.00 56 1016.7
20260503021424 42 293 0.0 1.0 0.00 0.00 0.00 59 1016.6
20260503020922 42 282 0.0 3.0 0.00 0.00 0.00 56 1016.4
20260503020420 42 246 0.0 1.0 0.00 0.00 0.00 56 1016.4
20260503015915 42 262 0.0 0.0 0.00 0.00 0.00 56 1016.6
20260503015412 42 279 0.0 1.0 0.00 0.00 0.00 57 1016.5
20260503014908 43 308 0.0 3.0 0.00 0.00 0.00 55 1016.4
20260503014405 43 298 0.0 2.0 0.00 0.00 0.00 54 1016.5
20260503013903 43 101 0.0 3.0 0.00 0.00 0.00 55 1016.3
20260503013400 42 349 2.0 2.0 0.00 0.00 0.00 56 1016.5
20260503012857 42 281 0.0 1.0 0.00 0.00 0.00 57 1016.4
20260503012355 42 268 0.0 1.0 0.00 0.00 0.00 56 1016.4
20260503011851 42 241 0.0 1.0 0.00 0.00 0.00 55 1016.4
20260503011348 42 290 0.0 0.0 0.00 0.00 0.00 57 1016.4
20260503010845 42 322 0.0 0.0 0.00 0.00 0.00 56 1016.4
20260503010342 42 322 0.0 1.0 0.00 0.00 0.00 54 1016.2
20260503005839 42 325 0.0 1.0 0.00 0.00 0.00 58 1016.3
20260503005337 43 325 1.0 3.0 0.00 0.00 0.00 53 1015.9
20260503004833 44 301 0.0 1.0 0.00 0.00 0.00 51 1015.8
20260503004330 44 305 1.0 3.0 0.00 0.00 0.00 51 1015.8
20260503003827 44 166 0.0 2.0 0.00 0.00 0.00 51 1015.7
20260503003324 44 285 0.0 3.0 0.00 0.00 0.00 50 1015.6
20260503002821 44 305 2.0 7.0 0.00 0.00 0.00 50 1015.6
20260503002318 44 239 0.0 2.0 0.00 0.00 0.00 49 1015.6
20260503001814 44 302 2.0 4.0 0.00 0.00 0.00 47 1015.7
20260503001311 44 140 1.0 1.0 0.00 0.00 0.00 48 1015.6
20260503000808 45 289 0.0 1.0 0.00 0.00 0.00 48 1015.6
20260503000305 45 297 2.0 2.0 0.00 0.00 0.00 47 1015.7
20260502235802 45 197 1.0 1.0 0.00 0.00 0.00 46 1015.6
20260502235300 45 274 0.0 1.0 0.00 0.00 0.00 49 1015.4
20260502234756 45 281 0.0 2.0 0.00 0.00 0.00 46 1015.5
20260502234253 46 304 3.0 4.0 0.00 0.00 0.00 46 1015.3
20260502233749 46 228 2.0 6.0 0.00 0.00 0.00 45 1015.1
20260502233246 46 309 1.0 2.0 0.00 0.00 0.00 48 1015.1
20260502232742 46 254 2.0 10.0 0.00 0.00 0.00 45 1015.0
20260502232239 46 297 1.0 3.0 0.00 0.00 0.00 45 1015.1
20260502231736 46 212 1.0 3.0 0.00 0.00 0.00 45 1015.1
20260502231234 46 302 2.0 3.0 0.00 0.00 0.00 45 1015.0
20260502230732 46 37 0.0 1.0 0.00 0.00 0.00 44 1015.0
20260502230230 47 271 0.0 4.0 0.00 0.00 0.00 44 1015.0
20260502225726 47 301 2.0 6.0 0.00 0.00 0.00 44 1015.1
20260502225223 47 266 1.0 8.0 0.00 0.00 0.00 46 1015.0
20260502224719 47 59 0.0 3.0 0.00 0.00 0.00 45 1015.0
20260502224216 47 281 0.0 2.0 0.00 0.00 0.00 48 1014.8
20260502223714 47 288 1.0 1.0 0.00 0.00 0.00 46 1014.8
20260502223212 47 295 0.0 3.0 0.00 0.00 0.00 43 1015.0
20260502222709 47 303 3.0 6.0 0.00 0.00 0.00 43 1014.9
20260502222206 47 259 1.0 2.0 0.00 0.00 0.00 43 1014.9
20260502221702 48 310 3.0 3.0 0.00 0.00 0.00 41 1014.9
20260502221159 48 193 0.0 3.0 0.00 0.00 0.00 46 1014.9
20260502220655 48 190 1.0 2.0 0.00 0.00 0.00 45 1014.8
20260502220151 48 289 1.0 3.0 0.00 0.00 0.00 44 1014.8
20260502215648 48 160 0.0 2.0 0.00 0.00 0.00 44 1014.6
20260502215145 47 311 2.0 3.0 0.00 0.00 0.00 42 1014.6
20260502214642 47 295 0.0 2.0 0.00 0.00 0.00 42 1014.6